Location: Newark
(49.2191°N, 12.6671°E)
Time: 14:14:28
(UTC+00:00)

Vanguard 2 Rocket - Visible Passes

Search period start: 20 January 2020 00:00
Search period end: 30 January 2020 00:00
Orbit: 554 x 3326 km, 32.9° (Epoch: 19 January)

Date Brightness Start Highest point End Pass type
(mag) Time Alt. Az. Time Alt. Az. Time Alt. Az.
20 Jan 9.3 05:58:13 10° SSW 06:02:53 20° SSE 06:09:26 10° ESE visible
21 Jan 9.3 05:00:59 10° S 05:03:51 14° SSE 05:07:20 10° ESE visible
22 Jan 9.1 06:11:44 10° SSW 06:16:24 22° SSE 06:23:05 10° ESE visible
23 Jan 9.0 05:13:57 10° SSW 05:17:18 16° SSE 05:21:35 10° ESE visible
24 Jan 9.1 04:18:13 10° SSE 04:18:21 10° SSE 04:18:29 10° SSE visible
25 Jan 8.9 05:27:26 10° SSW 05:30:54 17° SSE 05:35:22 10° SE visible
26 Jan 8.8 04:29:56 10° S 04:31:52 12° SSE 04:34:04 10° SE visible
27 Jan 8.8 05:41:20 10° SSW 05:44:35 16° S 05:48:45 10° SE visible
28 Jan 8.7 04:43:21 10° SSW 04:45:31 13° SSE 04:48:00 10° SE visible
29 Jan 8.8 05:55:41 10° SSW 05:58:22 14° S 06:01:38 10° SSE visible
